Weather History for KHSE - June, 2013

Change the Weather History Date:

Wednesday, June 5, 2013

  Actual Average Record
Temperature  
Mean Temperature 74 °F 73 °F  
Max Temperature 80 °F 79 °F 92 °F (1943)
Min Temperature 67 °F 66 °F 47 °F (1988)
Degree Days  
Heating Degree Days 0 0  
Month to date heating degree days 0 0  
Since 1 June heating degree days 0 0  
Since 1 July heating degree days 2420 2584  
Cooling Degree Days 9 8  
Month to date cooling degree days 58 37  
Year to date cooling degree days 220 180  
Since 1 June cooling degree days 58 37  
Growing Degree Days 22 (Base 50)    
Moisture  
Dew Point 57 °F    
Average Humidity 56    
Maximum Humidity 70    
Minimum Humidity 42    
Precipitation  
Precipitation 0.00 in 0.12 in 1.06 in (1995)
Month to date precipitation 1.56 0.57  
Year to date precipitation 20.75 21.81  
Snow  
Snow 0.00 in - - ()
Month to date snowfall 0.0  
Since 1 July snowfall 0.0  
Snow Depth 0.00 in    
Sea Level Pressure  
Sea Level Pressure 30.10 in    
Wind  
Wind Speed 6 mph (ENE)    
Max Wind Speed 13 mph    
Max Gust Speed 18 mph    
Visibility 10 miles    
Events      
T = Trace of Precipitation, MM = Missing Value Source: NWS Daily Summary

Daily Weather History Graph

Daily Weather History Graph

Search for Another Location

Airport or City:

Trip Planner

Search our weather history database for the weather conditions in past years. The results will help you decide how hot, cold, wet, or windy it might be!

Date:

Astronomy

Jun. 05, 2013 Rise Set
Actual Time 5:48 AM EDT 8:14 PM EDT
Civil Twilight 5:18 AM EDT 8:43 PM EDT
Nautical Twilight 4:42 AM EDT 9:20 PM EDT
Astronomical Twilight 4:02 AM EDT 10:00 PM EDT
Moon 3:45 AM EDT (6/5) 5:42 PM EDT (6/5)
Length of Visible Light 15h 25m
Length of Day
14h 26m
Waning Crescent, 8% of the Moon is Illuminated
Jun 5
Waning Crescent
Jun 8
New
Jun 16
First Quarter
Jun 23
Full
Jun 30
Last Quarter

Hourly Weather History & Observations

Time (EDT) Temp. Dew Point Humidity Pressure Visibility Wind Dir Wind Speed Gust Speed Precip Events Conditions
12:51 AM 70.0 °F 59.0 °F 68% 30.12 in 10.0 mi ENE 6.9 mph - N/A   Mostly Cloudy
1:51 AM 69.1 °F 57.0 °F 65% 30.11 in 10.0 mi ENE 6.9 mph - N/A   Clear
2:51 AM 69.1 °F 57.9 °F 68% 30.11 in 10.0 mi ENE 4.6 mph - N/A   Clear
3:51 AM 68.0 °F 57.0 °F 68% 30.09 in 10.0 mi ENE 5.8 mph - N/A   Clear
4:51 AM 68.0 °F 55.9 °F 65% 30.09 in 10.0 mi East 5.8 mph - N/A   Clear
5:51 AM 66.9 °F 55.0 °F 66% 30.10 in 10.0 mi ENE 4.6 mph - N/A   Clear
6:51 AM 70.0 °F 55.0 °F 59% 30.11 in 10.0 mi ENE 4.6 mph - N/A   Clear
7:51 AM 73.9 °F 57.9 °F 57% 30.12 in 10.0 mi Calm Calm - N/A   Clear
8:51 AM 75.0 °F 57.9 °F 55% 30.12 in 10.0 mi ENE 6.9 mph - N/A   Clear
9:51 AM 77.0 °F 55.0 °F 47% 30.14 in 10.0 mi ENE 6.9 mph - N/A   Clear
10:51 AM 77.0 °F 57.0 °F 50% 30.14 in 10.0 mi NE 9.2 mph 17.3 mph N/A   Clear
11:51 AM 78.1 °F 57.9 °F 50% 30.13 in 10.0 mi ENE 9.2 mph 17.3 mph N/A   Clear
12:51 PM 78.1 °F 55.9 °F 46% 30.13 in 10.0 mi ENE 9.2 mph 18.4 mph N/A   Clear
1:51 PM 79.0 °F 54.0 °F 42% 30.12 in 10.0 mi Variable 4.6 mph - N/A   Clear
2:51 PM 79.0 °F 54.0 °F 42% 30.11 in 10.0 mi NE 9.2 mph - N/A   Clear
3:51 PM 78.1 °F 55.0 °F 45% 30.09 in 10.0 mi NE 5.8 mph - N/A   Clear
4:51 PM 78.1 °F 57.0 °F 48% 30.07 in 10.0 mi ENE 6.9 mph - N/A   Clear
5:51 PM 78.1 °F 57.0 °F 48% 30.06 in 10.0 mi ENE 5.8 mph - N/A   Clear
6:51 PM 75.9 °F 57.9 °F 54% 30.06 in 10.0 mi ENE 5.8 mph - N/A   Clear
7:51 PM 73.9 °F 59.0 °F 59% 30.08 in 10.0 mi NE 3.5 mph - N/A   Clear
8:51 PM 72.0 °F 60.1 °F 66% 30.07 in 10.0 mi ENE 5.8 mph - N/A   Clear
9:51 PM 72.0 °F 61.0 °F 68% 30.09 in 10.0 mi ENE 4.6 mph - N/A   Clear
10:51 PM 72.0 °F 61.0 °F 68% 30.09 in 10.0 mi East 4.6 mph - N/A   Mostly Cloudy
11:51 PM 75.0 °F 62.1 °F 64% 30.09 in 10.0 mi ESE 9.2 mph - N/A   Partly Cloudy